Location: Ciserano
(45.5833°N, 9.6000°E)
Time: 05:27:45
(UTC+00:00)

FALCON 9 DEB - Pass Details

Date: 29 November 2020
Orbit: 373 x 391 km, 53.0° (Epoch: 24 January)

Event Time Altitude Azimuth Distance (km) Brightness Sun altitude
Exits shadow 05:52:43 11° 283° (WNW) 1,388 5.0 -8.2°
Maximum altitude 05:55:25 28° 344° (NNW) 781 4.1 -7.7°
Drops below altitude 10° 05:58:18 10° 47° (NE) 1,451 6.1 -7.3°
Sets 06:00:34 0° 59° (ENE) 2,312 7.3 -6.9°
